Time,TemperatureF,DewpointF,PressureIn,WindDirection,WindDirectionDegrees,WindSpeedMPH,WindSpeedGustMPH,Humidity,HourlyPrecipIn,Conditions,Clouds,dailyrainin,SoftwareType,DateUTC
2013-01-17 00:02:00,39.0,-99.9,30.40,East,98,15.0,20.0,-999,-99.99,,,-99.99,,2013-01-17 08:02:00,
2013-01-17 00:12:00,39.0,-99.9,30.40,East,99,17.0,21.0,-999,-99.99,,,-99.99,,2013-01-17 08:12:00,
2013-01-17 00:22:00,39.0,-99.9,30.40,East,98,16.0,20.0,-999,-99.99,,,-99.99,,2013-01-17 08:22:00,
2013-01-17 00:32:00,39.0,-99.9,30.40,East,101,13.0,17.0,-999,-99.99,,,-99.99,,2013-01-17 08:32:00,
2013-01-17 00:44:00,39.0,-99.9,30.40,East,101,13.0,17.0,-999,-99.99,,,-99.99,,2013-01-17 08:44:00,
2013-01-17 00:53:00,39.0,-99.9,30.40,ESE,103,14.0,17.0,-999,-99.99,,,-99.99,,2013-01-17 08:53:00,
2013-01-17 01:03:00,40.0,-99.9,30.39,ESE,107,15.0,18.0,-999,-99.99,,,-99.99,,2013-01-17 09:03:00,
2013-01-17 01:12:00,40.0,-99.9,30.39,ESE,106,16.0,19.0,-999,-99.99,,,-99.99,,2013-01-17 09:12:00,
2013-01-17 01:22:00,40.0,-99.9,30.39,ESE,107,14.0,17.0,-999,-99.99,,,-99.99,,2013-01-17 09:22:00,
2013-01-17 01:33:00,40.0,-99.9,30.39,ESE,108,15.0,18.0,-999,-99.99,,,-99.99,,2013-01-17 09:33:00,
2013-01-17 01:43:00,40.0,-99.9,30.39,ESE,110,13.0,17.0,-999,-99.99,,,-99.99,,2013-01-17 09:43:00,
2013-01-17 01:53:00,40.0,-99.9,30.39,ESE,112,13.0,16.0,-999,-99.99,,,-99.99,,2013-01-17 09:53:00,
2013-01-17 02:02:00,40.0,-99.9,30.38,ESE,109,11.0,15.0,-999,-99.99,,,-99.99,,2013-01-17 10:02:00,
2013-01-17 02:12:00,40.0,-99.9,30.38,ESE,110,15.0,17.0,-999,-99.99,,,-99.99,,2013-01-17 10:12:00,
2013-01-17 02:22:00,40.0,-99.9,30.37,ESE,113,15.0,17.0,-999,-99.99,,,-99.99,,2013-01-17 10:22:00,
2013-01-17 02:33:00,40.0,-99.9,30.37,ESE,109,14.0,17.0,-999,-99.99,,,-99.99,,2013-01-17 10:33:00,
2013-01-17 02:43:00,40.0,-99.9,30.37,ESE,105,13.0,16.0,-999,-99.99,,,-99.99,,2013-01-17 10:43:00,
2013-01-17 02:53:00,41.0,-99.9,30.37,East,101,10.0,14.0,-999,-99.99,,,-99.99,,2013-01-17 10:53:00,
2013-01-17 03:03:00,40.0,-99.9,30.38,ESE,110,9.0,13.0,-999,-99.99,,,-99.99,,2013-01-17 11:03:00,
2013-01-17 03:12:00,40.0,-99.9,30.38,ESE,106,10.0,12.0,-999,-99.99,,,-99.99,,2013-01-17 11:12:00,
2013-01-17 03:23:00,40.0,-99.9,30.38,ESE,119,8.0,12.0,-999,-99.99,,,-99.99,,2013-01-17 11:23:00,
2013-01-17 03:33:00,40.0,-99.9,30.38,ESE,118,9.0,12.0,-999,-99.99,,,-99.99,,2013-01-17 11:33:00,
2013-01-17 03:43:00,40.0,-99.9,30.38,ESE,108,12.0,15.0,-999,-99.99,,,-99.99,,2013-01-17 11:43:00,
2013-01-17 03:53:00,40.0,-99.9,30.38,ESE,113,13.0,15.0,-999,-99.99,,,-99.99,,2013-01-17 11:53:00,
2013-01-17 04:03:00,40.0,-99.9,30.38,ESE,113,8.0,11.0,-999,-99.99,,,-99.99,,2013-01-17 12:03:00,
2013-01-17 04:12:00,40.0,-99.9,30.38,ESE,115,7.0,9.0,-999,-99.99,,,-99.99,,2013-01-17 12:12:00,
2013-01-17 04:23:00,39.0,-99.9,30.37,ESE,117,11.0,12.0,-999,-99.99,,,-99.99,,2013-01-17 12:23:00,
2013-01-17 04:33:00,39.0,-99.9,30.37,ESE,109,10.0,13.0,-999,-99.99,,,-99.99,,2013-01-17 12:33:00,
2013-01-17 04:43:00,39.0,-99.9,30.37,ESE,102,10.0,14.0,-999,-99.99,,,-99.99,,2013-01-17 12:43:00,
2013-01-17 04:53:00,39.0,-99.9,30.37,ESE,110,14.0,15.0,-999,-99.99,,,-99.99,,2013-01-17 12:53:00,
2013-01-17 05:03:00,39.0,-99.9,30.36,ESE,113,11.0,15.0,-999,-99.99,,,-99.99,,2013-01-17 13:03:00,
2013-01-17 05:13:00,39.0,-99.9,30.36,ESE,108,13.0,15.0,-999,-99.99,,,-99.99,,2013-01-17 13:13:00,
2013-01-17 05:23:00,39.0,-99.9,30.35,ESE,109,14.0,16.0,-999,-99.99,,,-99.99,,2013-01-17 13:23:00,
2013-01-17 05:33:00,39.0,-99.9,30.35,ESE,110,16.0,18.0,-999,-99.99,,,-99.99,,2013-01-17 13:33:00,
2013-01-17 05:43:00,39.0,-99.9,30.35,East,101,15.0,18.0,-999,-99.99,,,-99.99,,2013-01-17 13:43:00,
2013-01-17 05:53:00,39.0,-99.9,30.34,East,101,15.0,20.0,-999,-99.99,,,-99.99,,2013-01-17 13:53:00,
2013-01-17 06:03:00,39.0,-99.9,30.35,East,100,13.0,18.0,-999,-99.99,,,-99.99,,2013-01-17 14:03:00,
2013-01-17 06:13:00,39.0,-99.9,30.35,East,99,12.0,16.0,-999,-99.99,,,-99.99,,2013-01-17 14:13:00,
2013-01-17 06:23:00,39.0,-99.9,30.35,ESE,105,15.0,18.0,-999,-99.99,,,-99.99,,2013-01-17 14:23:00,
2013-01-17 06:33:00,38.0,-99.9,30.34,East,100,17.0,20.0,-999,-99.99,,,-99.99,,2013-01-17 14:33:00,
2013-01-17 06:43:00,39.0,-99.9,30.32,East,100,22.0,26.0,-999,-99.99,,,-99.99,,2013-01-17 14:43:00,
2013-01-17 06:53:00,39.0,-99.9,30.32,East,99,22.0,26.0,-999,-99.99,,,-99.99,,2013-01-17 14:53:00,
2013-01-17 07:03:00,39.0,-99.9,30.33,East,96,17.0,25.0,-999,-99.99,,,-99.99,,2013-01-17 15:03:00,
2013-01-17 07:13:00,40.0,-99.9,30.33,East,92,16.0,20.0,-999,-99.99,,,-99.99,,2013-01-17 15:13:00,
2013-01-17 07:23:00,39.0,-99.9,30.33,East,95,15.0,19.0,-999,-99.99,,,-99.99,,2013-01-17 15:23:00,
2013-01-17 07:33:00,39.0,-99.9,30.34,East,89,11.0,16.0,-999,-99.99,,,-99.99,,2013-01-17 15:33:00,
2013-01-17 07:43:00,39.0,-99.9,30.34,East,90,11.0,15.0,-999,-99.99,,,-99.99,,2013-01-17 15:43:00,
2013-01-17 07:53:00,39.0,-99.9,30.34,East,96,13.0,17.0,-999,-99.99,,,-99.99,,2013-01-17 15:53:00,
2013-01-17 08:03:00,39.0,-99.9,30.34,East,100,18.0,20.0,-999,-99.99,,,-99.99,,2013-01-17 16:03:00,
2013-01-17 08:13:00,39.0,-99.9,30.33,East,101,21.0,23.0,-999,-99.99,,,-99.99,,2013-01-17 16:13:00,
2013-01-17 08:23:00,39.0,-99.9,30.33,ESE,108,21.0,23.0,-999,-99.99,,,-99.99,,2013-01-17 16:23:00,
2013-01-17 08:34:00,40.0,-99.9,30.33,ESE,110,22.0,24.0,-999,-99.99,,,-99.99,,2013-01-17 16:34:00,
2013-01-17 08:44:00,40.0,-99.9,30.32,ESE,106,22.0,25.0,-999,-99.99,,,-99.99,,2013-01-17 16:44:00,
2013-01-17 08:53:00,40.0,-99.9,30.32,ESE,106,23.0,26.0,-999,-99.99,,,-99.99,,2013-01-17 16:53:00,
2013-01-17 09:03:00,41.0,-99.9,30.33,ESE,102,22.0,25.0,-999,-99.99,,,-99.99,,2013-01-17 17:03:00,
2013-01-17 09:13:00,42.0,-99.9,30.33,ESE,102,21.0,25.0,-999,-99.99,,,-99.99,,2013-01-17 17:13:00,
2013-01-17 09:23:00,43.0,-99.9,30.33,East,99,21.0,25.0,-999,-99.99,,,-99.99,,2013-01-17 17:23:00,
2013-01-17 09:33:00,43.0,-99.9,30.33,East,97,18.0,25.0,-999,-99.99,,,-99.99,,2013-01-17 17:33:00,
2013-01-17 09:43:00,43.0,-99.9,30.33,East,99,19.0,23.0,-999,-99.99,,,-99.99,,2013-01-17 17:43:00,
2013-01-17 09:54:00,43.0,-99.9,30.34,East,97,14.0,21.0,-999,-99.99,,,-99.99,,2013-01-17 17:54:00,
2013-01-17 10:04:00,44.0,-99.9,30.34,East,91,12.0,17.0,-999,-99.99,,,-99.99,,2013-01-17 18:04:00,
2013-01-17 10:13:00,45.0,-99.9,30.34,East,86,8.0,15.0,-999,-99.99,,,-99.99,,2013-01-17 18:13:00,
2013-01-17 10:23:00,45.0,-99.9,30.34,East,91,9.0,12.0,-999,-99.99,,,-99.99,,2013-01-17 18:23:00,
2013-01-17 10:34:00,46.0,-99.9,30.34,East,91,7.0,13.0,-999,-99.99,,,-99.99,,2013-01-17 18:34:00,
2013-01-17 10:44:00,46.0,-99.9,30.34,East,96,10.0,13.0,-999,-99.99,,,-99.99,,2013-01-17 18:44:00,
2013-01-17 10:54:00,46.0,-99.9,30.33,East,95,14.0,19.0,-999,-99.99,,,-99.99,,2013-01-17 18:54:00,
2013-01-17 11:04:00,47.0,-99.9,30.32,East,101,18.0,22.0,-999,-99.99,,,-99.99,,2013-01-17 19:04:00,
2013-01-17 11:13:00,47.0,-99.9,30.32,ESE,102,17.0,24.0,-999,-99.99,,,-99.99,,2013-01-17 19:13:00,
2013-01-17 11:23:00,49.0,-99.9,30.33,East,86,7.0,22.0,-999,-99.99,,,-99.99,,2013-01-17 19:23:00,
2013-01-17 11:33:00,49.0,-99.9,30.33,East,93,5.0,10.0,-999,-99.99,,,-99.99,,2013-01-17 19:33:00,
2013-01-17 11:43:00,49.0,-99.9,30.32,East,94,8.0,13.0,-999,-99.99,,,-99.99,,2013-01-17 19:43:00,
2013-01-17 11:54:00,50.0,-99.9,30.31,East,96,10.0,15.0,-999,-99.99,,,-99.99,,2013-01-17 19:54:00,
2013-01-17 12:03:00,51.0,-99.9,30.31,East,89,7.0,11.0,-999,-99.99,,,-99.99,,2013-01-17 20:03:00,
2013-01-17 12:13:00,52.0,-99.9,30.30,East,95,9.0,16.0,-999,-99.99,,,-99.99,,2013-01-17 20:13:00,
2013-01-17 12:23:00,52.0,-99.9,30.30,East,95,10.0,14.0,-999,-99.99,,,-99.99,,2013-01-17 20:23:00,
2013-01-17 12:33:00,52.0,-99.9,30.30,East,97,10.0,15.0,-999,-99.99,,,-99.99,,2013-01-17 20:33:00,
2013-01-17 12:44:00,53.0,-99.9,30.29,East,89,9.0,14.0,-999,-99.99,,,-99.99,,2013-01-17 20:44:00,
2013-01-17 12:54:00,53.0,-99.9,30.29,East,98,11.0,15.0,-999,-99.99,,,-99.99,,2013-01-17 20:54:00,
2013-01-17 13:03:00,54.0,-99.9,30.28,East,93,8.0,15.0,-999,-99.99,,,-99.99,,2013-01-17 21:03:00,
2013-01-17 13:13:00,55.0,-99.9,30.28,East,92,9.0,14.0,-999,-99.99,,,-99.99,,2013-01-17 21:13:00,
2013-01-17 13:23:00,55.0,-99.9,30.27,East,80,6.0,9.0,-999,-99.99,,,-99.99,,2013-01-17 21:23:00,
2013-01-17 13:34:00,56.0,-99.9,30.27,East,91,5.0,9.0,-999,-99.99,,,-99.99,,2013-01-17 21:34:00,
2013-01-17 13:43:00,56.0,-99.9,30.26,East,85,8.0,12.0,-999,-99.99,,,-99.99,,2013-01-17 21:43:00,
2013-01-17 13:53:00,56.0,-99.9,30.26,East,85,9.0,13.0,-999,-99.99,,,-99.99,,2013-01-17 21:53:00,
2013-01-17 14:04:00,56.0,-99.9,30.25,East,90,9.0,14.0,-999,-99.99,,,-99.99,,2013-01-17 22:04:00,
2013-01-17 14:12:00,56.0,-99.9,30.25,East,90,8.0,13.0,-999,-99.99,,,-99.99,,2013-01-17 22:12:00,
2013-01-17 14:23:00,57.0,-99.9,30.25,East,94,4.0,9.0,-999,-99.99,,,-99.99,,2013-01-17 22:23:00,
2013-01-17 14:33:00,58.0,-99.9,30.25,East,88,5.0,10.0,-999,-99.99,,,-99.99,,2013-01-17 22:33:00,
2013-01-17 14:43:00,58.0,-99.9,30.25,East,100,7.0,12.0,-999,-99.99,,,-99.99,,2013-01-17 22:43:00,
2013-01-17 14:53:00,58.0,-99.9,30.25,East,89,6.0,9.0,-999,-99.99,,,-99.99,,2013-01-17 22:53:00,
2013-01-17 15:03:00,58.0,-99.9,30.25,East,85,4.0,9.0,-999,-99.99,,,-99.99,,2013-01-17 23:03:00,
2013-01-17 15:12:00,58.0,-99.9,30.24,East,87,6.0,10.0,-999,-99.99,,,-99.99,,2013-01-17 23:12:00,
2013-01-17 15:23:00,58.0,-99.9,30.24,East,95,4.0,9.0,-999,-99.99,,,-99.99,,2013-01-17 23:23:00,
2013-01-17 15:33:00,57.0,-99.9,30.24,East,92,8.0,13.0,-999,-99.99,,,-99.99,,2013-01-17 23:33:00,
2013-01-17 15:43:00,57.0,-99.9,30.24,East,89,7.0,10.0,-999,-99.99,,,-99.99,,2013-01-17 23:43:00,
2013-01-17 15:53:00,56.0,-99.9,30.24,East,96,11.0,16.0,-999,-99.99,,,-99.99,,2013-01-17 23:53:00,
2013-01-17 16:03:00,56.0,-99.9,30.24,East,96,10.0,13.0,-999,-99.99,,,-99.99,,2013-01-18 00:03:00,
2013-01-17 16:13:00,56.0,-99.9,30.23,East,96,11.0,14.0,-999,-99.99,,,-99.99,,2013-01-18 00:13:00,
2013-01-17 16:23:00,56.0,-99.9,30.23,East,98,15.0,19.0,-999,-99.99,,,-99.99,,2013-01-18 00:23:00,
2013-01-17 16:33:00,56.0,-99.9,30.23,East,98,15.0,19.0,-999,-99.99,,,-99.99,,2013-01-18 00:33:00,
2013-01-17 16:43:00,55.0,-99.9,30.23,ESE,102,15.0,19.0,-999,-99.99,,,-99.99,,2013-01-18 00:43:00,
2013-01-17 16:53:00,55.0,-99.9,30.23,East,101,15.0,17.0,-999,-99.99,,,-99.99,,2013-01-18 00:53:00,
2013-01-17 17:03:00,54.0,-99.9,30.23,East,96,11.0,17.0,-999,-99.99,,,-99.99,,2013-01-18 01:03:00,
2013-01-17 17:13:00,53.0,-99.9,30.23,East,96,10.0,13.0,-999,-99.99,,,-99.99,,2013-01-18 01:13:00,
2013-01-17 17:23:00,52.0,-99.9,30.24,East,92,7.0,13.0,-999,-99.99,,,-99.99,,2013-01-18 01:23:00,
2013-01-17 17:33:00,51.0,-99.9,30.24,East,88,6.0,10.0,-999,-99.99,,,-99.99,,2013-01-18 01:33:00,
2013-01-17 17:43:00,51.0,-99.9,30.24,East,82,5.0,11.0,-999,-99.99,,,-99.99,,2013-01-18 01:43:00,
2013-01-17 17:53:00,50.0,-99.9,30.24,ESE,103,3.0,9.0,-999,-99.99,,,-99.99,,2013-01-18 01:53:00,
2013-01-17 18:03:00,49.0,-99.9,30.24,East,82,3.0,9.0,-999,-99.99,,,-99.99,,2013-01-18 02:03:00,
2013-01-17 18:12:00,49.0,-99.9,30.24,East,86,4.0,7.0,-999,-99.99,,,-99.99,,2013-01-18 02:12:00,
2013-01-17 18:23:00,49.0,-99.9,30.25,East,97,3.0,8.0,-999,-99.99,,,-99.99,,2013-01-18 02:23:00,
2013-01-17 18:33:00,49.0,-99.9,30.25,East,95,7.0,10.0,-999,-99.99,,,-99.99,,2013-01-18 02:33:00,
2013-01-17 18:43:00,48.0,-99.9,30.24,East,98,12.0,15.0,-999,-99.99,,,-99.99,,2013-01-18 02:43:00,
2013-01-17 18:53:00,47.0,-99.9,30.24,East,101,11.0,15.0,-999,-99.99,,,-99.99,,2013-01-18 02:53:00,
2013-01-17 19:03:00,47.0,-99.9,30.24,ESE,102,12.0,17.0,-999,-99.99,,,-99.99,,2013-01-18 03:03:00,
2013-01-17 19:13:00,47.0,-99.9,30.24,ESE,105,13.0,16.0,-999,-99.99,,,-99.99,,2013-01-18 03:13:00,
2013-01-17 19:23:00,47.0,-99.9,30.24,East,99,10.0,12.0,-999,-99.99,,,-99.99,,2013-01-18 03:23:00,
2013-01-17 19:33:00,46.0,-99.9,30.24,East,100,13.0,16.0,-999,-99.99,,,-99.99,,2013-01-18 03:33:00,
2013-01-17 19:43:00,46.0,-99.9,30.24,East,101,14.0,17.0,-999,-99.99,,,-99.99,,2013-01-18 03:43:00,
2013-01-17 19:53:00,46.0,-99.9,30.23,ESE,104,15.0,19.0,-999,-99.99,,,-99.99,,2013-01-18 03:53:00,
2013-01-17 20:03:00,46.0,-99.9,30.23,ESE,105,15.0,18.0,-999,-99.99,,,-99.99,,2013-01-18 04:03:00,
2013-01-17 20:12:00,46.0,-99.9,30.23,ESE,102,16.0,19.0,-999,-99.99,,,-99.99,,2013-01-18 04:12:00,
2013-01-17 20:22:00,47.0,-99.9,30.23,East,99,14.0,18.0,-999,-99.99,,,-99.99,,2013-01-18 04:22:00,
2013-01-17 20:33:00,47.0,-99.9,30.23,East,98,14.0,19.0,-999,-99.99,,,-99.99,,2013-01-18 04:33:00,
2013-01-17 20:43:00,47.0,-99.9,30.22,East,95,15.0,17.0,-999,-99.99,,,-99.99,,2013-01-18 04:43:00,
2013-01-17 20:53:00,47.0,-99.9,30.22,East,95,14.0,19.0,-999,-99.99,,,-99.99,,2013-01-18 04:53:00,
2013-01-17 21:04:00,47.0,-99.9,30.22,East,89,14.0,17.0,-999,-99.99,,,-99.99,,2013-01-18 05:04:00,
2013-01-17 21:12:00,47.0,-99.9,30.22,East,89,13.0,17.0,-999,-99.99,,,-99.99,,2013-01-18 05:12:00,
2013-01-17 21:22:00,47.0,-99.9,30.23,East,87,8.0,13.0,-999,-99.99,,,-99.99,,2013-01-18 05:22:00,
2013-01-17 21:33:00,47.0,-99.9,30.23,East,90,10.0,13.0,-999,-99.99,,,-99.99,,2013-01-18 05:33:00,
2013-01-17 21:43:00,47.0,-99.9,30.23,East,88,7.0,12.0,-999,-99.99,,,-99.99,,2013-01-18 05:43:00,
2013-01-17 21:53:00,47.0,-99.9,30.23,East,88,4.0,10.0,-999,-99.99,,,-99.99,,2013-01-18 05:53:00,
2013-01-17 22:02:00,46.0,-99.9,30.23,East,92,8.0,12.0,-999,-99.99,,,-99.99,,2013-01-18 06:02:00,
2013-01-17 22:12:00,46.0,-99.9,30.23,East,89,7.0,12.0,-999,-99.99,,,-99.99,,2013-01-18 06:12:00,
2013-01-17 22:23:00,45.0,-99.9,30.23,ESE,104,14.0,17.0,-999,-99.99,,,-99.99,,2013-01-18 06:23:00,
2013-01-17 22:33:00,46.0,-99.9,30.23,East,97,11.0,16.0,-999,-99.99,,,-99.99,,2013-01-18 06:33:00,
2013-01-17 22:43:00,46.0,-99.9,30.23,East,95,11.0,15.0,-999,-99.99,,,-99.99,,2013-01-18 06:43:00,
2013-01-17 22:53:00,46.0,-99.9,30.22,East,92,10.0,16.0,-999,-99.99,,,-99.99,,2013-01-18 06:53:00,
2013-01-17 23:02:00,46.0,-99.9,30.22,East,92,12.0,17.0,-999,-99.99,,,-99.99,,2013-01-18 07:02:00,
2013-01-17 23:12:00,47.0,-99.9,30.22,East,92,12.0,14.0,-999,-99.99,,,-99.99,,2013-01-18 07:12:00,
2013-01-17 23:22:00,47.0,-99.9,30.22,East,95,12.0,16.0,-999,-99.99,,,-99.99,,2013-01-18 07:22:00,
2013-01-17 23:33:00,46.0,-99.9,30.23,East,93,10.0,13.0,-999,-99.99,,,-99.99,,2013-01-18 07:33:00,
2013-01-17 23:43:00,46.0,-99.9,30.23,East,94,9.0,14.0,-999,-99.99,,,-99.99,,2013-01-18 07:43:00,
2013-01-17 23:52:00,46.0,-99.9,30.23,East,93,9.0,13.0,-999,-99.99,,,-99.99,,2013-01-18 07:52:00,